User: anonymous   Login
Location: Asheville, NC
(35.6000°N, 82.5500°W)
Time: 06:38:41
(UTC-04:00)
Language:

CUTE 1.7 + AOD 2 - Orbit

View from above orbital plane
View from above orbital plane
View from above satellite
View from above satellite

Ground track
Ground track

The orbit data is extracted from the following two-line orbital elements,

1 32785U 08021C   18202.47442828 +.00000189 +00000-0 +26098-4 0  9995
2 32785 097.5465 213.0152 0011534 287.0521 072.9432 14.88147680554206
Epoch (UTC): 21 July 2018 11:23:10
Eccentricity: 0.0011534
inclination: 97.5465°
perigee height: 595 km
apogee height: 612 km
right ascension of ascending node: 213.0152°
argument of perigee: 287.0521°
revolutions per day: 14.88147680
mean anomaly at epoch: 72.9432°
orbit number at epoch: 55420

The dashed part of the orbit path shows where the satellite is in the earth's shadow,  

DLR